Simultaneous Nadir Overpasses (SNOs) Predictions

Prediction of SNOs between GOES-16 and METOP-C Satellite Orbit:

Table of predicted SNOs for the next 14.0 days since TLE Epoch: 9/26/2020
Index Date Time (GOES-16) GOES-16 Lat,Lon METOP-C Lat,Lon Distance(km) Time Diff (sec)
1 09/27/2020 14:41:59 -0.02, -75.20 0.46, -77.28 237.21 80
2 09/28/2020 14:18:40 -0.02, -75.20 -0.68, -72.29 332.36 80
3 09/30/2020 02:40:19 0.02, -75.20 -0.38, -76.88 192.39 80
4 10/01/2020 02:17:00 0.03, -75.20 0.76, -71.89 377.70 80
5 10/02/2020 14:38:30 -0.02, -75.24 0.25, -76.45 138.04 80
6 10/03/2020 14:15:11 -0.03, -75.25 -0.90, -71.46 432.40 80
7 10/05/2020 02:36:50 0.02, -75.25 -0.16, -76.05 91.11 80
8 10/06/2020 02:13:30 0.02, -75.26 0.99, -71.06 479.54 80
9 10/07/2020 14:35:01 -0.02, -75.30 0.03, -75.61 35.73 80
10 10/10/2020 02:30:40 0.02, -75.32 0.02, -75.20 12.46 80
